TimeCDT,TemperatureF,Dew PointF,Humidity,Sea Level PressureIn,VisibilityMPH,Wind Direction,Wind SpeedMPH,Gust SpeedMPH,PrecipitationIn,Events,Conditions,WindDirDegrees,DateUTC
12:15 AM,71.6,66.2,83,29.79,10.0,South,8.1,-,N/A,,Scattered Clouds,170,2013-05-21 05:15:00
12:35 AM,71.6,66.2,83,29.79,10.0,South,3.5,-,N/A,,Clear,180,2013-05-21 05:35:00
12:55 AM,71.6,64.4,78,29.82,10.0,South,6.9,10.4,N/A,,Clear,180,2013-05-21 05:55:00
1:15 AM,71.6,66.2,83,29.81,10.0,SW,4.6,-,N/A,,Clear,220,2013-05-21 06:15:00
1:35 AM,68.0,64.4,88,29.78,10.0,WNW,5.8,-,N/A,,Clear,290,2013-05-21 06:35:00
1:55 AM,68.0,64.4,88,29.78,10.0,WNW,5.8,-,N/A,,Clear,300,2013-05-21 06:55:00
2:15 AM,68.0,64.4,88,29.78,10.0,Calm,Calm,-,N/A,,Clear,0,2013-05-21 07:15:00
2:35 AM,68.0,64.4,88,29.80,10.0,South,3.5,-,N/A,,Clear,170,2013-05-21 07:35:00
2:55 AM,68.0,64.4,88,29.80,10.0,Calm,Calm,-,N/A,,Clear,0,2013-05-21 07:55:00
3:15 AM,68.0,64.4,88,29.79,10.0,SE,6.9,-,N/A,,Scattered Clouds,140,2013-05-21 08:15:00
3:35 AM,68.0,66.2,94,29.79,10.0,South,5.8,-,N/A,,Mostly Cloudy,180,2013-05-21 08:35:00
3:55 AM,68.0,64.4,88,29.76,10.0,Calm,Calm,-,N/A,,Overcast,0,2013-05-21 08:55:00
4:15 AM,68.0,64.4,88,29.79,10.0,SE,8.1,-,N/A,,Overcast,140,2013-05-21 09:15:00
4:35 AM,68.0,66.2,94,29.81,10.0,South,4.6,-,N/A,,Overcast,190,2013-05-21 09:35:00
4:55 AM,68.0,64.4,88,29.81,10.0,Calm,Calm,-,N/A,Rain,Light Rain,0,2013-05-21 09:55:00
5:15 AM,68.0,66.2,94,29.82,10.0,NW,3.5,-,N/A,,Mostly Cloudy,320,2013-05-21 10:15:00
5:35 AM,66.2,66.2,100,29.81,10.0,North,8.1,-,N/A,Rain,Light Rain,350,2013-05-21 10:35:00
5:55 AM,68.0,66.2,94,29.82,10.0,North,6.9,-,N/A,Rain,Light Rain,350,2013-05-21 10:55:00
6:15 AM,66.2,62.6,88,29.82,10.0,North,15.0,21.9,N/A,Rain,Rain,350,2013-05-21 11:15:00
6:35 AM,64.4,60.8,88,29.77,10.0,East,16.1,23.0,N/A,Rain,Light Rain,80,2013-05-21 11:35:00
6:55 AM,64.4,60.8,88,29.84,10.0,East,4.6,-,N/A,Rain,Light Rain,80,2013-05-21 11:55:00
7:15 AM,64.4,60.8,88,29.78,10.0,ENE,11.5,-,N/A,,Light Drizzle,60,2013-05-21 12:15:00
7:35 AM,62.6,60.8,94,29.85,10.0,NW,6.9,10.4,N/A,,Scattered Clouds,310,2013-05-21 12:35:00
7:55 AM,62.6,59.0,88,29.85,10.0,NNW,6.9,-,N/A,,Clear,330,2013-05-21 12:55:00
8:15 AM,62.6,59.0,88,29.84,10.0,NNW,9.2,-,N/A,,Clear,330,2013-05-21 13:15:00
8:35 AM,62.6,59.0,88,29.84,10.0,NNW,10.4,-,N/A,,Scattered Clouds,340,2013-05-21 13:35:00
8:55 AM,62.6,59.0,88,29.86,10.0,North,5.8,-,N/A,,Mostly Cloudy,350,2013-05-21 13:55:00
9:15 AM,62.6,57.2,82,29.85,10.0,North,9.2,-,N/A,,Mostly Cloudy,360,2013-05-21 14:15:00
9:35 AM,62.6,59.0,88,29.91,7.0,NNW,9.2,-,0.02,Rain,Heavy Rain,340,2013-05-21 14:35:00
9:55 AM,60.8,59.0,94,29.95,7.0,NW,15.0,-,0.06,Rain,Rain,310,2013-05-21 14:55:00
10:15 AM,59.0,59.0,100,29.87,10.0,NE,9.2,19.6,0.02,Rain,Light Rain,50,2013-05-21 15:15:00
10:35 AM,59.0,59.0,100,29.88,5.0,North,8.1,-,0.05,Rain,Rain,360,2013-05-21 15:35:00
10:55 AM,59.0,59.0,100,29.79,10.0,North,17.3,23.0,0.06,,Mostly Cloudy,10,2013-05-21 15:55:00
11:15 AM,59.0,59.0,100,29.82,10.0,NNE,12.7,-,N/A,,Scattered Clouds,30,2013-05-21 16:15:00
11:35 AM,60.8,59.0,94,29.83,10.0,NNE,9.2,-,N/A,,Scattered Clouds,20,2013-05-21 16:35:00
11:55 AM,60.8,59.0,94,29.84,10.0,NNE,3.5,-,N/A,,Scattered Clouds,30,2013-05-21 16:55:00
12:15 PM,62.6,60.8,94,29.82,10.0,North,9.2,-,N/A,,Overcast,10,2013-05-21 17:15:00
12:35 PM,62.6,59.0,88,29.86,5.0,ENE,3.5,-,0.04,Rain,Rain,60,2013-05-21 17:35:00
12:55 PM,60.8,60.8,100,29.97,3.0,West,12.7,-,0.16,Rain,Heavy Rain,280,2013-05-21 17:55:00
1:15 PM,60.8,60.8,100,29.97,2.0,WNW,16.1,27.6,0.22,Rain,Heavy Rain,300,2013-05-21 18:15:00
1:35 PM,59.0,59.0,100,29.98,7.0,WNW,12.7,-,0.25,Rain,Rain,300,2013-05-21 18:35:00
1:55 PM,59.0,59.0,100,29.94,4.0,NNW,11.5,-,0.34,Rain,Heavy Rain,340,2013-05-21 18:55:00
2:15 PM,59.0,59.0,100,29.90,7.0,East,11.5,-,0.03,Rain,Rain,90,2013-05-21 19:15:00
2:35 PM,59.0,59.0,100,29.76,7.0,ENE,21.9,32.2,0.07,Rain,Light Rain,70,2013-05-21 19:35:00
2:55 PM,59.0,59.0,100,29.75,10.0,ENE,12.7,26.5,0.07,Rain,Light Rain,60,2013-05-21 19:55:00
3:15 PM,59.0,59.0,100,29.82,10.0,Calm,Calm,-,N/A,,Scattered Clouds,0,2013-05-21 20:15:00
3:35 PM,60.8,59.0,94,29.82,10.0,West,5.8,-,N/A,,Clear,280,2013-05-21 20:35:00
4:15 PM,60.8,60.8,100,29.79,10.0,WNW,6.9,-,N/A,,Clear,290,2013-05-21 21:15:00
4:35 PM,60.8,60.8,100,29.80,10.0,West,3.5,-,N/A,,Clear,270,2013-05-21 21:35:00
4:55 PM,60.8,60.8,100,29.80,10.0,WNW,6.9,-,N/A,,Clear,290,2013-05-21 21:55:00
5:15 PM,60.8,60.8,100,29.79,10.0,WNW,3.5,-,N/A,,Clear,300,2013-05-21 22:15:00
5:35 PM,62.6,60.8,94,29.79,10.0,WNW,5.8,-,N/A,,Clear,300,2013-05-21 22:35:00
5:55 PM,64.4,60.8,88,29.80,10.0,WNW,8.1,-,N/A,,Clear,290,2013-05-21 22:55:00
6:15 PM,68.0,62.6,83,29.82,10.0,West,4.6,-,N/A,,Scattered Clouds,280,2013-05-21 23:15:00
6:35 PM,68.0,60.8,78,29.82,10.0,NW,6.9,-,N/A,,Scattered Clouds,320,2013-05-21 23:35:00
6:55 PM,68.0,60.8,78,29.82,10.0,West,5.8,-,N/A,,Clear,270,2013-05-21 23:55:00
7:15 PM,69.8,62.6,78,29.83,10.0,WNW,8.1,-,N/A,,Clear,290,2013-05-22 00:15:00
7:35 PM,68.0,60.8,78,29.84,10.0,WNW,6.9,-,N/A,,Clear,300,2013-05-22 00:35:00
7:55 PM,68.0,60.8,78,29.86,10.0,WSW,3.5,-,N/A,,Clear,250,2013-05-22 00:55:00
8:15 PM,64.4,60.8,88,29.86,10.0,Calm,Calm,-,N/A,,Clear,0,2013-05-22 01:15:00
8:35 PM,64.4,59.0,83,29.85,10.0,Calm,Calm,-,N/A,,Scattered Clouds,0,2013-05-22 01:35:00
8:55 PM,62.6,59.0,88,29.86,10.0,SSE,3.5,-,N/A,,Scattered Clouds,160,2013-05-22 01:55:00
9:15 PM,62.6,59.0,88,29.86,10.0,SE,4.6,-,N/A,,Clear,140,2013-05-22 02:15:00
9:35 PM,62.6,59.0,88,29.85,10.0,South,5.8,-,N/A,,Clear,180,2013-05-22 02:35:00
9:55 PM,60.8,59.0,94,29.86,10.0,Calm,Calm,-,N/A,,Clear,0,2013-05-22 02:55:00
10:15 PM,60.8,59.0,94,29.85,10.0,Calm,Calm,-,N/A,,Clear,0,2013-05-22 03:15:00
10:35 PM,59.0,57.2,94,29.85,10.0,SW,3.5,-,N/A,,Clear,220,2013-05-22 03:35:00
10:55 PM,59.0,57.2,94,29.86,10.0,SSW,3.5,-,N/A,,Scattered Clouds,200,2013-05-22 03:55:00
11:15 PM,59.0,55.4,88,29.86,10.0,SSW,3.5,-,N/A,,Mostly Cloudy,200,2013-05-22 04:15:00
11:35 PM,59.0,57.2,94,29.86,10.0,South,3.5,-,N/A,,Mostly Cloudy,180,2013-05-22 04:35:00
11:55 PM,59.0,55.4,88,29.86,10.0,South,4.6,-,N/A,,Mostly Cloudy,190,2013-05-22 04:55:00